Regional Weather Roundup
Issued by NWS

Home | Current Version | Previous Version | Graphics & Text | Print | Product List | Glossary On
Versions: 1 2 3 4 5 6 7 8 9 10 11 12 13 14 15 16 17 18 19 20 21 22 23 24 25 26 27 28 29 30 31 32 33 34 35 36 37 38 39 40 41 42 43 44 45 46 47 48 49 50
000
ASUS43 KMKX 280111
RWRWI

WISCONSIN REGIONAL WEATHER ROUNDUP
NATIONAL WEATHER SERVICE MILWAUKEE/SULLIVAN WI
800 PM CDT MON JUL 27 2015

NOTE: "FAIR" INDICATES FEW OR NO CLOUDS BELOW 12,000 FEET WITH NO
SIGNIFICANT WEATHER AND/OR OBSTRUCTIONS TO VISIBILITY.

WIZ001-002-006>008-014>016-023>028-280200-
NORTHWEST WISCONSIN

CITY           SKY/WX    TMP DP  RH WIND       PRES   REMARKS
SUPERIOR ARPT  MOCLDY    74  69  84 CALM      29.92S
ASHLAND        CLEAR     80  60  50 S3        29.95R HX  81
HAYWARD        CLEAR     80  61  52 S7        29.97S HX  81
SIREN          MOCLDY    81  66  61 S8        29.94S HX  83
CUMBERLAND     MOCLDY    75  66  73 SE5       29.96S
RICE LAKE      MOCLDY    79  66  65 SE6       29.98R HX  81
CHETEK         MOCLDY    79  68  68 SE5       29.96S HX  82
LADYSMITH      CLEAR     80  65  60 SE3       30.00S HX  82
EAU CLAIRE     CLEAR     82  67  60 SE7       29.94S HX  84
MENOMONIE      CLEAR     81  70  69 E5        29.94S HX  84
NEW RICHMOND   PTCLDY    79  69  70 SE3       29.94S HX  81
OSCEOLA        PTCLDY    80  70  71 SE8       29.95S HX  83
$$

WIZ003>005-009-010-017-018-280200-
NORTH CENTRAL WISCONSIN

CITY           SKY/WX    TMP DP  RH WIND       PRES   REMARKS
MANITOWISH WTR CLEAR     78  63  60 S5        30.01S HX  80
ARBOR VITAE    CLEAR     80  61  52 S5        30.02S HX  81
WOODRUFF       CLEAR     80  61  52 S5        30.02S HX  81
RHINELANDER    CLEAR     79  60  52 CALM      30.04R HX  80
EAGLE RIVER    CLEAR     78  57  48 CALM      30.03R
LAND O LAKES   CLEAR     80  57  44 S3        30.04R HX  80
PHILLIPS       CLEAR     78  64  61 S5        30.01R HX  80
TOMAHAWK       PTCLDY    76  62  61 CALM      30.02S
MEDFORD        PTCLDY    76  65  69 SE3       30.01S
MERRILL        NOT AVBL
$$

WIZ029-030-035-036-043>047-280200-
CENTRAL WISCONSIN

CITY           SKY/WX    TMP DP  RH WIND       PRES   REMARKS
WAUSAU         PTCLDY    80  64  58 SE5       29.99S HX  82
MOSINEE        CLEAR     77  64  65 E3        30.01S
MARSHFIELD     MOCLDY    80  62  54 SE5       29.99S HX  81
STEVENS POINT  PTCLDY    78  62  58 CALM      30.00S
WAUPACA        PTCLDY    79  64  60 E3        29.99S HX  81
WAUTOMA        PTCLDY    81  62  52 CALM      29.99S HX  82
WISC RAPIDS    MOCLDY    81  61  50 SE3       29.99S HX  82
CAMP DOUGLAS   PTCLDY    81  72  74 SE5       29.97R HX  84
$$

WIZ011>013-019>022-031-037>040-048>050-280200-
NORTHEAST WISCONSIN

CITY           SKY/WX    TMP DP  RH WIND       PRES   REMARKS
ANTIGO         PTCLDY    74  64  69 CALM      30.04R
SHAWANO        PTCLDY    79  66  64 SE3       30.00S HX  81
OCONTO         CLEAR     78  67  69 S3        29.99S HX  80
STURGEON BAY   CLEAR     77  61  57 S3        30.04R
GREEN BAY      PTCLDY    78  64  61 SE7       30.00S HX  80
MANITOWOC      CLEAR     76  65  68 MISG      30.02R
APPLETON       MOCLDY    81  59  47 SE10      30.01  HX  81
CLINTONVILLE   PTCLDY    79  63  57 SE3       30.00R HX  80
OSHKOSH        CLEAR     80  63  55 SE6       29.99S HX  81
$$

WIZ032>034-041-042-053>061-280200-
SOUTHWEST WISCONSIN

CITY           SKY/WX    TMP DP  RH WIND       PRES   REMARKS
LA CROSSE      PTCLDY    83  69  62 SE7       29.93S HX  86
SPARTA         MOCLDY    81  65  59 SE5       29.97S HX  83
VIROQUA        PTCLDY    79  68  70 SE6       29.98S HX  81
BOSCOBEL       CLOUDY    83  70  64 CALM      29.96R HX  87
PRAIRIE DU CHI MOCLDY    81  68  65 SE3       29.94S HX  83
PLATTEVILLE    MOCLDY    80  74  82 SE5       29.98S HX  84
$$

WIZ056-057-062-063-064-067-068-280200-
SOUTH CENTRAL WISCONSIN

CITY           SKY/WX    TMP DP  RH WIND       PRES   REMARKS
REEDSBURG      MOCLDY    80  69  69 SE5       29.97S HX  83
BARABOO/DELLS  MOCLDY    80  65  60 SE5       29.99R HX  81
LONE ROCK      MOCLDY    81  71  71 SE5       29.96S HX  85
MINERAL POINT  MOCLDY    79  72  78 CALM      29.99S HX  82
MADISON        MOCLDY    80  65  59 SE7       29.98R HX  82
MIDDLETON      MOCLDY    81  61  50 SE5       30.00R HX  82
WATERTOWN      PTCLDY    77  64  65 SE3       29.99F
MONROE         MOCLDY    79  66  65 E6        29.99S HX  81
JANESVILLE     CLEAR     81  64  57 E7        29.98S HX  82
$$

WIZ051-052-058>065-066-070>072-280200-
SOUTHEAST WISCONSIN

CITY           SKY/WX    TMP DP  RH WIND       PRES   REMARKS
MILWAUKEE      MOCLDY    74  66  76 NE5       30.01R
WAUKESHA       CLEAR     77  59  53 SE12      30.02R
MILWAUKEE/TIMM CLEAR     79  57  47 E5        30.02R HX  80
RACINE         MOCLDY    73  64  73 NE6       30.02S
BURLINGTON     MOCLDY    74  62  65 CALM      30.01R
KENOSHA        MOCLDY    71  62  73 E6        30.01S
FOND DU LAC    CLEAR     79  61  53 SE7       29.99F HX  80
SHEBOYGAN      CLEAR     75  65  70 SE3       30.02R
WEST BEND      PTCLDY    75  61  60 CALM      30.02S
JUNEAU           N/A     76  64  67 E7        30.01F
$$

LSZ147-162-280200-
LAKE SUPERIOR

STATION/POSITION TIME  TEMP    WIND        PRES    WAVE
                       AIR SEA DIR/SP/G            HT/PER
                 (UTC) (F)     (DEG/KT/KT) (MB)    (FT/S)
W MID LAKE BUOY  0050   66 64  110/  8/  8 1013.9F   0
DEVILS ISLAND    0100   74     110/ 10/ 10 1013.7R
PORT WING        0000   88     180/  8/ 13 1013.2S
SAXON HARBOR     0000   78                 1013.5
$$

LMZ867-665-643>646-280200-
LAKE MICHIGAN

STATION/POSITION TIME  TEMP    WIND        PRES    WAVE
                       AIR SEA DIR/SP/G            HT/PER
                 (UTC) (F)     (DEG/KT/KT) (MB)    (FT/S)
CHAMBERS ISLAND  0000   84     180/  1/  3 1015.2
N MID LAKE BUOY  0050   73 71  220/  4/  4 1015.5S   0
NORTHPORT PIER   0000   83     180/  3/  5 1015.2
SISTER BAY       0014   85     240/  2/  3   N/A
ALGOMA LAKESHORE 0012             CALM       N/A
KEWAUNEE LAKESHO 0000   74     160/  3/  4 1015.5F
SHEBOYGAN LAKESH 0100   75     100/  1/  2 1016.4R
PORT WASHINGTON  0000   78      60/  2/  3 1016.6S
ATWATER BUOY     0100   72     290/  2/  4 1017.5R
MILWAUKEE LAKESH 0000   74      30/  7/  7   N/A
KENOSHA   LAKESH 0100   74      20/  3/  5 1015.6R
$$

TC  - TEMPERATURE IN CELSIUS
VSB - VISIBILITY IN STATUTE MILES
WCI - WIND CHILL INDEX
HX  - HEAT INDEX




USA.gov is the U.S. government's official web portal to all federal, state and local government web resources and services.